Elat, Israel

2:51 PM IST on February 27, 2017 (GMT +0200)
Eilat

Weather History for LLET - September, 2013

Change the Weather History Date:

Monday, September 16, 2013

  Actual Average Record
Temperature  
Mean Temperature 88 °F -  
Max Temperature 97 °F 93 °F 109 °F (1998)
Min Temperature 79 °F 73 °F 75 °F (2014)
Cooling Degree Days 23    
Growing Degree Days 38 (Base 50)    
Moisture  
Dew Point 59 °F    
Average Humidity 36    
Maximum Humidity 58    
Minimum Humidity 17    
Precipitation  
Precipitation 0.00 in -6.12 in - ()
Sea Level Pressure  
Sea Level Pressure 29.80 in    
Wind  
Wind Speed 11 mph ()    
Max Wind Speed 18 mph    
Max Gust Speed -    
Visibility 8.8 miles    
Events      
Averages and records for this station are not official NWS values.
T = Trace of Precipitation, MM = Missing Value Source: Averaged Metar Reports

Daily Weather History Graph

Daily Weather History Graph

Search for Another Location

Airport or City:

Trip Planner

Search our weather history database for the weather conditions in past years. The results will help you decide how hot, cold, wet, or windy it might be!

Date:

Astronomy

Sep. 16, 2013 Rise Set
Actual Time 6:25 AM IDT 6:44 PM IDT
Civil Twilight 6:01 AM IDT 7:08 PM IDT
Nautical Twilight 5:33 AM IDT 7:35 PM IDT
Astronomical Twilight 5:05 AM IDT 8:04 PM IDT
Moon 4:29 PM IDT (9/16) 3:00 AM IDT (9/16)
Length of Visible Light 13h 06m
Length of Day
12h 18m
Waxing Gibbous, 88% of the Moon is Illuminated
Sep 16
Waxing Gibbous
Sep 19
Full
Sep 27
Last Quarter
Oct 5
New
Oct 12
First Quarter

Hourly Weather History & Observations

Time (IDT) Temp. Heat Index Dew Point Humidity Pressure Visibility Wind Dir Wind Speed Gust Speed Precip Events Conditions
3:00 AM 84 °F - 52 °F 23% 29.81 in 9 mi NNW 10.4 mph - -  
5:33 AM 80.6 °F 82.3 °F 64.4 °F 58% 29.83 in - NNE 9.2 mph - N/A   Clear
5:50 AM 80.6 °F 82.3 °F 64.4 °F 58% 29.83 in - NNE 8.1 mph - N/A   Clear
6:50 AM 80.6 °F 82.3 °F 64.4 °F 58% 29.86 in 6.2 mi NE 8.1 mph - N/A   Partly Cloudy
7:50 AM 80.6 °F 82.3 °F 64.4 °F 58% 29.86 in 6.2 mi ENE 9.2 mph - N/A   Partly Cloudy
8:50 AM 82.4 °F 83.9 °F 64.4 °F 54% 29.86 in 6.2 mi NE 15.0 mph - N/A   Partly Cloudy
9:00 AM 84 °F - 63 °F 38% 29.86 in 12 mi NNE 5.8 mph - -  
9:50 AM 86.0 °F 86.6 °F 62.6 °F 45% 29.86 in 6.2 mi NE 15.0 mph - N/A   Partly Cloudy
10:50 AM 86.0 °F 86.6 °F 62.6 °F 45% 29.86 in - NE 13.8 mph - N/A   Clear
11:50 AM 89.6 °F 90.1 °F 62.6 °F 40% 29.83 in - NE 15.0 mph - N/A   Clear
12:50 PM 91.4 °F 91.4 °F 60.8 °F 36% 29.80 in - NE 17.3 mph - N/A   Clear
1:50 PM 93.2 °F 93.3 °F 60.8 °F 34% 29.77 in - NE 16.1 mph - N/A   Clear
2:50 PM 96.8 °F 96.2 °F 59.0 °F 28% 29.77 in - NE 16.1 mph - N/A   Clear
3:00 PM 97 °F - 58 °F 19% 29.74 in 16 mi NNE 8.1 mph - -  
3:50 PM 96.8 °F 95.8 °F 57.2 °F 27% 29.74 in - NE 17.3 mph - N/A   Clear
4:50 PM 96.8 °F 95.1 °F 55.4 °F 25% 29.74 in - NE 18.4 mph - N/A   Clear
5:50 PM 95.0 °F 93.0 °F 55.4 °F 26% 29.74 in - NE 18.4 mph - N/A   Clear
6:50 PM 93.2 °F 91.3 °F 55.4 °F 28% 29.74 in - NE 18.4 mph - N/A   Clear
7:50 PM 93.2 °F - 51.8 °F 24% 29.77 in - NNE 16.1 mph - N/A   Clear
8:50 PM 89.6 °F - 50.0 °F 26% 29.80 in - North 9.2 mph - N/A   Clear
9:00 PM 89 °F - 50 °F 17% 29.78 in - NNW 5.8 mph - -  
9:50 PM 89.6 °F - 51.8 °F 27% 29.80 in - North 10.4 mph - N/A   Clear
10:50 PM 86.0 °F 84.5 °F 55.4 °F 35% 29.80 in - North 11.5 mph - N/A   Clear